Time,TemperatureF,DewpointF,PressureIn,WindDirection,WindDirectionDegrees,WindSpeedMPH,WindSpeedGustMPH,Humidity,HourlyPrecipIn,Conditions,Clouds,dailyrainin,SolarRadiationWatts/m^2,SoftwareType,DateUTC
2013-11-11 01:00:00,40.0,29.0,-100.00,SSE,157,6.0,-999.0,64,-99.99,,,-99.99,0.000000,,2013-11-11 06:00:00,
2013-11-11 01:42:00,40.0,29.0,-100.00,SSE,157,6.0,-999.0,64,-99.99,,,-99.99,0.000000,,2013-11-11 06:42:00,
2013-11-11 01:52:00,40.0,29.0,-100.00,SSE,157,6.0,-999.0,64,-99.99,,,-99.99,0.000000,,2013-11-11 06:52:00,
2013-11-11 02:00:00,40.0,29.0,-100.00,South,180,6.0,-999.0,64,-99.99,,,-99.99,0.000000,,2013-11-11 07:00:00,
2013-11-11 02:43:00,40.0,29.0,-100.00,South,180,6.0,-999.0,64,-99.99,,,-99.99,0.000000,,2013-11-11 07:43:00,
2013-11-11 02:52:00,40.0,29.0,-100.00,South,180,6.0,-999.0,64,-99.99,,,-99.99,0.000000,,2013-11-11 07:52:00,
2013-11-11 03:00:00,41.0,29.0,-100.00,South,180,7.0,-999.0,63,-99.99,,,-99.99,0.000000,,2013-11-11 08:00:00,
2013-11-11 03:42:00,41.0,29.0,-100.00,South,180,7.0,-999.0,63,-99.99,,,-99.99,0.000000,,2013-11-11 08:42:00,
2013-11-11 03:52:00,41.0,29.0,-100.00,South,180,7.0,-999.0,63,-99.99,,,-99.99,0.000000,,2013-11-11 08:52:00,
2013-11-11 04:00:00,40.0,30.0,-100.00,SSE,157,7.0,-999.0,65,-99.99,,,-99.99,0.000000,,2013-11-11 09:00:00,
2013-11-11 04:43:00,40.0,30.0,-100.00,SSE,157,7.0,-999.0,65,-99.99,,,-99.99,0.000000,,2013-11-11 09:43:00,
2013-11-11 04:54:00,40.0,30.0,-100.00,SSE,157,7.0,-999.0,65,-99.99,,,-99.99,0.000000,,2013-11-11 09:54:00,
2013-11-11 05:00:00,40.0,30.0,-100.00,SSE,157,8.0,-999.0,66,-99.99,,,-99.99,0.000000,,2013-11-11 10:00:00,
2013-11-11 05:42:00,40.0,30.0,-100.00,SSE,157,8.0,-999.0,66,-99.99,,,-99.99,0.000000,,2013-11-11 10:42:00,
2013-11-11 05:52:00,40.0,30.0,-100.00,SSE,157,8.0,-999.0,66,-99.99,,,-99.99,0.000000,,2013-11-11 10:52:00,
2013-11-11 06:00:00,41.0,30.0,-100.00,SSE,157,7.0,-999.0,66,-99.99,,,-99.99,0.000000,,2013-11-11 11:00:00,
2013-11-11 06:42:00,41.0,30.0,-100.00,SSE,157,7.0,-999.0,66,-99.99,,,-99.99,0.000000,,2013-11-11 11:42:00,
2013-11-11 06:52:00,41.0,30.0,-100.00,SSE,157,7.0,-999.0,66,-99.99,,,-99.99,0.000000,,2013-11-11 11:52:00,
2013-11-11 08:00:00,41.0,31.0,-100.00,South,180,7.0,-999.0,65,-99.99,,,-99.99,2.320000,,2013-11-11 13:00:00,
2013-11-11 08:42:00,41.0,31.0,-100.00,South,180,7.0,-999.0,65,-99.99,,,-99.99,2.320000,,2013-11-11 13:42:00,
2013-11-11 08:52:00,41.0,31.0,-100.00,South,180,7.0,-999.0,65,-99.99,,,-99.99,2.320000,,2013-11-11 13:52:00,
2013-11-11 09:00:00,42.0,31.0,-100.00,South,180,8.0,-999.0,64,-99.99,,,-99.99,13.920000,,2013-11-11 14:00:00,
2013-11-11 09:42:00,42.0,31.0,-100.00,South,180,8.0,-999.0,64,-99.99,,,-99.99,13.920000,,2013-11-11 14:42:00,
2013-11-11 09:52:00,42.0,31.0,-100.00,South,180,8.0,-999.0,64,-99.99,,,-99.99,13.920000,,2013-11-11 14:52:00,
2013-11-11 11:00:00,43.0,34.0,-100.00,SSW,202,7.0,-999.0,70,-99.99,,,-99.99,35.959999,,2013-11-11 16:00:00,
2013-11-11 11:42:00,43.0,34.0,-100.00,SSW,202,7.0,-999.0,70,-99.99,,,-99.99,35.959999,,2013-11-11 16:42:00,
2013-11-11 11:53:00,43.0,34.0,-100.00,SSW,202,7.0,-999.0,70,-99.99,,,-99.99,35.959999,,2013-11-11 16:53:00,
2013-11-11 12:00:00,42.0,38.0,-100.00,SW,225,8.0,-999.0,83,0.02,,,-99.99,39.439999,,2013-11-11 17:00:00,
2013-11-11 12:43:00,42.0,38.0,-100.00,SW,225,8.0,-999.0,83,0.02,,,-99.99,39.439999,,2013-11-11 17:43:00,
2013-11-11 12:52:00,42.0,38.0,-100.00,SW,225,8.0,-999.0,83,0.02,,,-99.99,39.439999,,2013-11-11 17:52:00,
2013-11-11 13:00:00,40.0,38.0,-100.00,WSW,247,9.0,-999.0,89,0.06,,,-99.99,40.599998,,2013-11-11 18:00:00,
2013-11-11 13:42:00,40.0,38.0,-100.00,WSW,247,9.0,-999.0,89,0.06,,,-99.99,40.599998,,2013-11-11 18:42:00,
2013-11-11 13:52:00,40.0,38.0,-100.00,WSW,247,9.0,-999.0,89,0.06,,,-99.99,40.599998,,2013-11-11 18:52:00,
2013-11-11 15:00:00,37.0,35.0,-100.00,West,270,7.0,-999.0,92,0.04,,,-99.99,40.599998,,2013-11-11 20:00:00,
2013-11-11 15:42:00,37.0,35.0,-100.00,West,270,7.0,-999.0,92,0.04,,,-99.99,40.599998,,2013-11-11 20:42:00,
2013-11-11 15:52:00,37.0,35.0,-100.00,West,270,7.0,-999.0,92,0.04,,,-99.99,40.599998,,2013-11-11 20:52:00,
2013-11-11 17:00:00,31.0,29.0,-100.00,WNW,292,11.0,-999.0,94,-99.99,,,-99.99,19.719999,,2013-11-11 22:00:00,
2013-11-11 17:43:00,31.0,29.0,-100.00,WNW,292,11.0,-999.0,94,-99.99,,,-99.99,19.719999,,2013-11-11 22:43:00,
2013-11-11 17:53:00,31.0,29.0,-100.00,WNW,292,11.0,-999.0,94,-99.99,,,-99.99,19.719999,,2013-11-11 22:53:00,
2013-11-11 18:00:00,28.0,27.0,-100.00,WNW,292,9.0,-999.0,93,-99.99,,,-99.99,1.160000,,2013-11-11 23:00:00,
2013-11-11 18:43:00,28.0,27.0,-100.00,WNW,292,9.0,-999.0,93,-99.99,,,-99.99,1.160000,,2013-11-11 23:43:00,
2013-11-11 18:53:00,28.0,27.0,-100.00,WNW,292,9.0,-999.0,93,-99.99,,,-99.99,1.160000,,2013-11-11 23:53:00,
2013-11-11 19:00:00,28.0,25.0,-100.00,WNW,292,7.0,-999.0,88,-99.99,,,-99.99,0.000000,,2013-11-12 00:00:00,
2013-11-11 19:42:00,28.0,25.0,-100.00,WNW,292,7.0,-999.0,88,-99.99,,,-99.99,0.000000,,2013-11-12 00:42:00,
2013-11-11 19:52:00,28.0,25.0,-100.00,WNW,292,7.0,-999.0,88,-99.99,,,-99.99,0.000000,,2013-11-12 00:52:00,
2013-11-11 20:00:00,28.0,24.0,-100.00,NW,315,5.0,-999.0,86,-99.99,,,-99.99,0.000000,,2013-11-12 01:00:00,
2013-11-11 20:42:00,28.0,24.0,-100.00,NW,315,5.0,-999.0,86,-99.99,,,-99.99,0.000000,,2013-11-12 01:42:00,
2013-11-11 20:52:00,28.0,24.0,-100.00,NW,315,5.0,-999.0,86,-99.99,,,-99.99,0.000000,,2013-11-12 01:52:00,
2013-11-11 21:00:00,28.0,22.0,-100.00,NW,315,7.0,-999.0,79,-99.99,,,-99.99,0.000000,,2013-11-12 02:00:00,
2013-11-11 21:42:00,28.0,22.0,-100.00,NW,315,7.0,-999.0,79,-99.99,,,-99.99,0.000000,,2013-11-12 02:42:00,
2013-11-11 21:52:00,28.0,22.0,-100.00,NW,315,7.0,-999.0,79,-99.99,,,-99.99,0.000000,,2013-11-12 02:52:00,
2013-11-11 22:00:00,27.0,21.0,-100.00,NW,315,5.0,-999.0,77,-99.99,,,-99.99,0.000000,,2013-11-12 03:00:00,
2013-11-11 22:45:00,27.0,21.0,-100.00,NW,315,5.0,-999.0,77,-99.99,,,-99.99,0.000000,,2013-11-12 03:45:00,
2013-11-11 22:54:00,27.0,21.0,-100.00,NW,315,5.0,-999.0,77,-99.99,,,-99.99,0.000000,,2013-11-12 03:54:00,